Location: *
(50.3352°N, 22.8328°E)
Time: 13:45:52
(UTC+00:00)

Daily predictions for brighter satellites

Satellite Brightness Start Highest point End
(mag) Time Altitude Azimuth Time Altitude Azimuth Time Altitude Azimuth
Cosmos 2278 Rocket 3.5 17:24:00 10° NW 17:29:21 43° WSW 17:34:40 10° S
Meteor 2-5 Rocket 3.9 17:23:47 10° NNW 17:29:30 85° W 17:35:04 10° S
STARLINK-1117 4.0 17:25:51 10° WNW 17:29:50 58° SSW 17:33:49 10° SE
STARLINK-1200 4.2 17:26:26 10° SSW 17:30:14 38° SE 17:34:02 10° ENE
Cosmos 1892 Rocket 3.6 17:26:01 10° N 17:30:31 88° ENE 17:35:02 10° S
Cosmos 1626 Rocket 4.2 17:27:12 10° N 17:31:16 35° ENE 17:35:17 10° SE
STARLINK-1073 3.8 17:27:39 10° WNW 17:31:48 70° NNE 17:35:56 10° E
STARLINK-1078 4.1 17:30:20 10° WNW 17:34:18 55° SSW 17:38:17 10° SE
STARLINK-1192 4.1 17:31:07 10° SW 17:34:57 41° SE 17:38:48 10° ENE
Cosmos 1805 3.2 17:31:33 10° S 17:35:28 86° E 17:39:24 10° N
ARGOS 3.3 17:30:19 10° SE 17:35:34 55° ENE 17:40:50 10° N
STARLINK-1121 3.7 17:32:37 10° WNW 17:36:47 73° NNE 17:40:55 10° E
STARLINK-1108 4.2 17:35:09 10° WNW 17:39:06 52° SSW 17:43:03 10° SE
Cosmos 1602 Rocket 4.3 17:35:09 10° N 17:39:14 34° ENE 17:43:17 10° SE
Cosmos 1048 Rocket 4.2 17:34:31 10° SSW 17:39:40 78° WNW 17:44:55 10° NNE
STARLINK-1244 4.0 17:35:58 10° SW 17:39:51 43° SSE 17:43:44 10° ENE
Meteor 1-24 Rocket 3.7 17:35:28 10° NNW 17:41:04 90° ENE 17:46:27 10° S
STARLINK-1106 3.7 17:37:35 10° WNW 17:41:45 75° NNE 17:45:46 11° ESE
Okean 1-7 Rocket 3.7 17:37:52 10° NNW 17:42:18 82° W 17:46:41 10° S
Cosmos 494 Rocket 3.9 17:37:35 10° SSW 17:42:42 71° ESE 17:47:53 10° NNE
STARLINK-1071 4.3 17:39:48 10° WNW 17:43:44 49° SSW 17:47:39 10° SE
STARLINK-1138 3.9 17:40:33 10° SW 17:44:28 46° SSE 17:48:24 10° ENE
STARLINK-1112 3.7 17:42:36 10° WNW 17:46:46 78° NNE 17:50:35 12° ESE
NOSS 0 Rocket 4.4 17:41:32 10° SW 17:47:43 68° NW 17:53:54 10° NNE
STARLINK-1110 4.4 17:44:19 10° WNW 17:48:13 46° SSW 17:52:07 10° SE
CZ-2C R/B 2.9 17:43:23 10° SSE 17:48:22 70° ENE 17:53:12 10° N
Cosmos 1331 Rocket 4.4 17:43:27 10° NNW 17:48:35 66° WSW 17:53:41 10° S
STARLINK-1234 2.6 17:46:20 10° WSW 17:49:18 79° SSE 17:52:17 10° ENE
STARLINK-1143 3.9 17:45:24 10° SW 17:49:21 49° SSE 17:53:18 10° ENE
STARLINK-1124 4.4 17:45:23 10° WNW 17:49:22 46° SSW 17:53:20 10° SE
USA 81 4.4 17:45:51 10° N 17:51:07 73° W 17:56:22 10° S
STARLINK-1128 3.6 17:47:34 10° WNW 17:51:45 80° NNE 17:55:22 13° ESE
USA 186 1.8 17:48:51 10° SSE 17:52:17 76° ENE 17:55:39 10° N
Cosmos 1745 Rocket 4.5 17:46:29 10° NNW 17:52:45 67° W 17:58:55 10° S
Cosmos 1544 Rocket 3.6 17:48:39 10° S 17:53:00 63° E 17:57:24 10° NNE
MOS 1 4.3 17:49:48 10° SSE 17:55:26 83° ENE 18:01:08 10° NNW
SPOT 3 Rocket 3.8 17:50:33 10° SE 17:55:35 51° ENE 18:00:38 10° N
STARLINK-1113 3.6 17:52:33 10° WNW 17:56:44 83° NNE 18:00:08 15° ESE
Cosmos 2369 Rocket 2.8 17:51:18 10° NNW 17:56:45 42° NE 18:01:25 13° ESE
Cosmos 1470 3.1 17:53:10 10° SSE 17:56:49 41° E 18:00:31 10° NNE
STARLINK-1241 3.7 17:53:49 10° SW 17:57:47 55° SSE 18:01:45 10° ENE
CZ-4 R/B 4.3 17:57:16 10° SW 17:59:47 16° W 18:02:18 10° NW
STARLINK-1119 3.6 17:57:32 10° WNW 18:01:42 86° NNE 18:04:55 16° ESE
STARLINK-1239 3.6 17:58:39 10° SW 18:02:37 58° SSE 18:06:31 11° ENE
BREEZE-M DEB (TANK) 3.2 17:59:32 10° SW 18:04:40 29° SSE 18:06:13 18° ESE
Ariane Rocket 3.5 18:00:10 10° S 18:05:12 65° WSW 18:10:16 10° NNW
SJ-6B 2.9 18:02:32 10° SSE 18:06:37 84° ENE 18:10:46 10° NNW
STARLINK-1114 3.6 18:02:33 10° WNW 18:06:43 90° ENE 18:09:45 18° ESE
STARLINK-1240 3.6 18:03:20 10° SW 18:07:20 62° SSE 18:11:04 12° ENE
Cosmos 1758 Rocket 4.4 18:04:08 10° N 18:08:05 31° ENE 18:10:43 17° SE
Cosmos 1733 3.7 18:04:22 10° SSW 18:08:06 62° WNW 18:11:52 10° N
Cosmos 2184 Rocket 4.4 18:03:25 10° N 18:09:27 43° ENE 18:14:49 13° SE
Cosmos 1726 3.5 18:08:31 18° ESE 18:09:33 20° E 18:12:22 10° NE
Cosmos 1758 3.4 18:06:23 10° S 18:10:22 54° E 18:14:24 10° NNE
CZ-2C R/B 4.0 18:05:55 10° NNE 18:10:31 46° E 18:15:02 10° S
Meteor 1-22 Rocket 4.3 18:05:14 10° SSW 18:10:31 76° WNW 18:15:51 10° N
STARLINK-1130 (DARKSAT) 3.6 18:07:31 10° WNW 18:11:41 87° SSW 18:14:31 20° ESE
Aureole 2 Rocket 3.1 18:08:39 10° N 18:11:57 36° ENE 18:13:44 21° ESE
STARLINK-1216 3.5 18:08:02 10° SW 18:12:04 65° SSE 18:15:37 13° ENE
ATLAS CENTAUR R/B 4.1 18:10:59 10° NW 18:13:13 14° NNW 18:15:24 10° NNE
IRIDIUM 106 4.5 18:09:05 10° N 18:14:13 52° E 18:19:18 10° SSE
Cosmos 2219 Rocket 4.5 18:09:57 10° W 18:14:40 26° NW 18:19:23 10° NNE
Terra 4.0 18:16:12 10° NE 18:16:38 10° NE 18:17:03 10° NE
STARLINK-1084 3.6 18:12:29 10° WNW 18:16:38 83° SSW 18:19:17 22° ESE
STARLINK-1237 3.5 18:12:47 10° WSW 18:16:50 69° SSE 18:20:12 14° ENE
Meteor 1-21 Rocket 4.2 18:12:54 10° N 18:18:27 61° ENE 18:23:39 11° SSE
Cosmos 1943 Rocket 2.2 18:13:03 10° NNW 18:18:36 70° ENE 18:23:02 16° SE
STARLINK-1209 2.9 18:16:39 10° W 18:19:35 70° NNW 18:21:29 20° ENE
SL-14 R/B 4.2 18:17:00 10° NNW 18:20:57 50° W 18:24:50 10° S
ATLAS 2AS CENTAUR R/B 3.6 18:14:03 10° NW 18:21:30 44° NNE 18:26:55 17° E
STARLINK-1202 3.5 18:17:30 10° WSW 18:21:33 73° SSE 18:24:45 16° ENE
STARLINK-1098 3.6 18:17:28 10° WNW 18:21:38 79° SSW 18:24:04 24° ESE
STARLINK-1228 2.9 18:18:51 10° W 18:21:44 68° NNW 18:23:30 21° ENE
Cosmos 1943 4.3 18:19:43 16° SE 18:22:19 22° E 18:26:34 10° NE
STARLINK-1123 3.6 18:22:27 10° WNW 18:26:37 75° SSW 18:28:51 26° ESE
SL-8 R/B 3.7 18:22:01 10° W 18:26:47 69° S 18:29:36 24° ESE
ERBS 3.8 18:25:20 10° W 18:28:27 33° NNW 18:31:35 10° NE
STARLINK-1246 3.5 18:24:32 10° WSW 18:28:37 79° SSE 18:31:37 18° ENE
USA 234 3.4 18:22:59 10° ENE 18:29:23 54° SE 18:35:45 10° SW
Cosmos 2315 Rocket 4.1 18:23:08 10° S 18:29:27 87° W 18:35:52 10° N
STARLINK-1097 3.7 18:27:25 10° WNW 18:31:34 72° SSW 18:33:37 28° SE
Resurs 1-3 3.5 18:28:09 14° SSE 18:31:53 79° ENE 18:36:17 10° NNW
Cosmos 1626 3.7 18:29:58 10° NNW 18:33:24 35° W 18:36:47 10° SSW
STARLINK-67 3.1 18:31:23 10° W 18:33:56 49° N 18:34:49 31° NE
STARLINK-1201 3.1 18:31:07 10° WSW 18:34:23 74° NNW 18:36:08 25° ENE
Meteor 2-15 Rocket 4.3 18:29:14 10° S 18:35:16 77° E 18:41:22 10° NNE
H-2A R/B 3.2 18:30:24 10° S 18:35:28 45° W 18:40:26 10° NNW
STARLINK-1224 3.5 18:31:46 10° WSW 18:35:50 84° SSE 18:38:30 21° ENE
STARLINK-1099 3.7 18:32:25 10° WNW 18:36:33 68° SSW 18:38:25 31° SE
Aureole 3 3.6 18:32:45 10° S 18:36:51 71° E 18:42:08 10° NNE
STARLINK-1203 3.4 18:33:28 10° WSW 18:37:28 89° SE 18:39:57 22° ENE
DMSP B5D2-2 4.1 18:32:18 10° NNE 18:37:28 59° E 18:42:36 10° S
SL-16 R/B 2.3 18:33:36 10° SSW 18:39:16 78° WNW 18:44:59 10° NNE
SL-08 RB Rocket 4.3 18:35:34 10° S 18:40:00 58° W 18:44:33 10° NNW
STARLINK-1225 3.5 18:36:23 10° WSW 18:40:29 88° SSE 18:42:58 23° ENE
STARLINK-1104 3.8 18:37:24 10° WNW 18:41:31 64° SSW 18:43:12 33° SE
Resurs 01 Rocket 1.5 18:38:54 23° SSE 18:41:37 71° ENE 18:46:02 10° N
Cosmos 1328 4.3 18:40:14 10° N 18:44:02 39° ENE 18:44:50 35° ESE
STARLINK-1230 3.5 18:41:08 10° WSW 18:45:13 89° NNW 18:47:31 25° ENE
Cosmos 2228 3.6 18:45:53 34° ESE 18:46:28 36° E 18:50:25 10° NNE
STARLINK-1144 3.8 18:42:24 10° WNW 18:46:29 60° SSW 18:47:59 35° SE
STARLINK-1233 3.2 18:44:42 10° W 18:47:49 64° NNW 18:48:52 37° NE
STARLINK-1212 3.2 18:45:10 10° W 18:48:17 63° NNW 18:49:17 37° NE
STARLINK-1105 3.2 18:45:36 10° W 18:48:44 63° NNW 18:49:44 37° NE
STARLINK-1206 3.2 18:46:06 10° W 18:49:12 63° NNW 18:50:09 39° NE
Nadezhda 1 Rocket 4.3 18:45:15 19° SSE 18:49:35 46° E 18:55:38 10° NNE
STARLINK-1247 3.2 18:46:33 10° W 18:49:39 62° NNW 18:50:34 39° NE
Cosmos 1992 Rocket 3.9 18:44:35 10° NNW 18:49:50 88° WSW 18:52:56 25° SSE
STARLINK-1243 3.5 18:45:57 10° WSW 18:50:03 86° NNW 18:52:10 27° ENE
STARLINK-1227 3.2 18:46:57 10° W 18:50:05 62° NNW 18:51:02 39° NE
STARLINK-1218 3.2 18:47:27 10° W 18:50:33 62° NNW 18:51:26 40° NE
Abrixas rocket 4.1 18:48:14 10° SW 18:49:07 16° SSW 18:49:07 16° SSW
STARLINK-1226 3.2 18:47:54 10° W 18:51:00 62° NNW 18:51:53 40° NE
STARLINK-1254 3.2 18:48:19 10° W 18:51:26 62° NNW 18:52:20 40° NE
STARLINK-1103 3.9 18:47:22 10° WNW 18:51:26 57° SSW 18:52:45 38° SSE
Cosmos 1953 2.1 18:47:33 10° S 18:51:27 82° E 18:55:26 10° NNE
STARLINK-1215 3.2 18:48:49 10° W 18:51:55 61° NNW 18:52:45 41° NE
STARLINK-1231 3.2 18:49:15 10° W 18:52:21 61° NNW 18:53:10 42° NE
STARLINK-1232 3.2 18:50:10 10° W 18:53:15 61° NNW 18:54:02 42° NE
STARLINK-1217 3.2 18:50:37 10° W 18:53:43 61° NNW 18:54:29 43° NE
STARLINK-1208 3.3 18:51:01 10° W 18:54:09 61° NNW 18:54:56 43° NE
STARLINK-1229 3.3 18:51:31 10° W 18:54:36 60° NNW 18:55:20 44° NE
STARLINK-1236 3.6 18:50:44 10° WSW 18:54:49 83° NNW 18:56:45 30° ENE
STARLINK-1271 3.3 18:51:57 10° W 18:55:03 60° NNW 18:55:46 44° NE
STARLINK-1270 3.3 18:52:26 10° W 18:55:32 60° NNW 18:56:13 45° NE
STARLINK-1154 3.3 18:52:53 10° W 18:55:58 60° NNW 18:56:39 45° NE
SL-24 R/B 4.3 18:51:26 10° N 18:56:10 74° WNW 19:00:15 10° SSW
STARLINK-1101 4.0 18:52:22 10° WNW 18:56:24 53° SSW 18:57:32 39° SSE
STARLINK-1197 3.3 18:53:47 10° W 18:56:53 59° N 18:57:31 46° NE
STARLINK-1189 3.3 18:54:14 10° W 18:57:20 59° NNW 18:57:57 47° NE
STARLINK-1187 3.4 18:55:06 10° W 18:58:12 57° N 18:58:50 45° NE
STARLINK-1188 3.3 18:55:09 10° W 18:58:14 59° NNW 18:58:49 47° NE
STARLINK-1198 3.3 18:55:09 10° W 18:58:14 59° NNW 18:58:49 47° NE
STARLINK-1235 3.4 18:55:49 10° W 18:58:55 55° N 18:59:33 44° NE
CZ-4C R/B 4.3 18:54:45 10° WNW 18:59:44 26° N 19:05:30 10° NE
STARLINK-1199 3.3 18:57:05 10° W 19:00:11 58° NNW 19:00:44 48° NE
STARLINK-1191 3.3 18:57:32 10° W 19:00:38 58° N 19:01:10 49° NNE
Cosmos 1603 3.8 18:55:40 10° S 19:01:06 51° ESE 19:06:32 10° NE
STARLINK-1210 3.3 18:58:00 10° W 19:01:06 58° N 19:01:36 49° NNE
STARLINK-1102 4.1 18:57:20 10° WNW 19:01:22 50° SSW 19:02:19 41° S
MetOp-B 4.1 18:58:49 31° SE 19:01:23 70° ENE 19:06:44 10° N
STARLINK-1221 3.3 18:58:26 10° W 19:01:33 58° N 19:02:02 50° NNE
STARLINK-1219 3.3 18:58:54 10° W 19:02:00 57° N 19:02:29 50° NNE
STARLINK-1222 3.3 18:59:21 10° W 19:02:27 57° N 19:02:54 50° NNE
ISS -3.5 18:59:19 10° WNW 19:02:37 54° SSW 19:02:41 54° SSW
Meteor 1-16 Rocket 4.0 18:58:28 16° S 19:02:40 65° E 19:08:06 10° NNE
STARLINK-1211 3.3 18:59:48 10° W 19:02:54 57° N 19:03:20 51° NNE
Cosmos 2074 Rocket 4.0 18:56:58 10° N 19:03:16 84° W 19:08:16 17° S
STARLINK-1214 3.3 19:00:15 10° W 19:03:21 57° N 19:03:46 51° NNE
Cosmos 2251 Rocket 3.4 18:58:09 10° SSW 19:03:29 73° ESE 19:08:53 10° NNE
STARLINK-1245 3.3 19:00:44 10° W 19:03:49 57° N 19:04:10 52° NNE
STARLINK-1238 3.3 19:01:07 10° W 19:04:14 57° N 19:04:37 52° NNE
STARLINK-1269 3.6 19:00:35 10° WSW 19:04:40 77° NNW 19:06:12 37° ENE
Cosmos 2058 Rocket 4.0 19:05:24 31° ENE 19:05:24 31° ENE 19:08:45 10° NNE
BREEZE-M DEB (TANK) 3.3 18:59:13 10° W 19:04:58 60° SSW 19:05:20 55° SSE
STARLINK-1205 3.3 19:02:02 10° W 19:05:08 56° N 19:05:27 53° NNE
Cosmos 2084 Rocket 4.1 19:01:00 10° NW 19:05:20 51° SW 19:06:58 33° S
SPOT 5 3.8 19:05:12 27° ENE 19:05:21 27° ENE 19:09:02 10° N
STARLINK-1204 3.3 19:02:32 10° W 19:05:37 56° N 19:05:54 53° NNE
STARLINK-1111 4.1 19:02:20 10° WNW 19:06:20 47° SSW 19:07:06 41° S
CZ-2C R/B 2.5 19:02:32 10° NNE 19:07:46 87° ESE 19:12:56 10° SSW
Cosmos 1703 3.1 19:03:56 10° N 19:07:54 73° E 19:08:26 61° SE
STARLINK-1200 3.7 19:05:24 10° WSW 19:09:29 74° NNW 19:10:49 41° ENE
Cosmos 2237 Rocket 4.4 19:04:50 10° W 19:09:30 26° NW 19:14:12 10° NNE
ERS-1 Rocket 3.6 19:08:38 36° E 19:09:31 39° ENE 19:14:10 10° N
STARLINK-1073 4.2 19:07:20 10° WNW 19:11:18 44° SSW 19:11:53 41° S
Landsat 7 4.0 19:10:47 46° ESE 19:11:43 54° ENE 19:16:23 10° N
IGS 5A 3.7 19:12:35 49° E 19:12:45 50° ENE 19:16:48 10° N
STARLINK-1192 3.7 19:10:10 10° W 19:14:15 72° NNW 19:15:24 44° ENE
STARLINK-1121 4.3 19:12:19 10° WNW 19:16:14 41° SW 19:16:39 40° SSW
Cosmos 1610 Rocket 4.4 19:11:19 10° N 19:17:36 85° E 19:20:41 32° SSE
Cosmos 1656 Rocket 3.6 19:13:15 10° NNW 19:18:58 76° ENE 19:20:40 46° SE
STARLINK-1244 3.7 19:15:06 10° W 19:19:11 70° NNW 19:20:08 49° NE
Cosmos 546 4.5 19:15:35 10° W 19:19:29 90° NNW 19:19:33 87° E
Meteor 1-11 4.2 19:14:20 10° N 19:20:11 76° ENE 19:22:10 43° SSE
STARLINK-1106 4.4 19:17:18 10° WNW 19:21:10 38° SW 19:21:25 38° SSW
MOS 1 Rocket 3.8 19:16:55 10° N 19:22:05 70° WNW 19:27:27 10° SSW
STARLINK-1138 3.8 19:19:42 10° W 19:23:47 68° NNW 19:24:34 53° NE
STARLINK-1234 4.2 19:21:51 10° W 19:24:04 38° NW 19:24:04 38° NW
STARLINK-1143 3.8 19:24:37 10° W 19:28:42 67° NNW 19:29:16 58° NE
CARTOSAT-1 4.1 19:30:23 44° NE 19:30:23 44° NE 19:34:09 10° N
COSMOS 2455 3.5 19:24:38 10° NNW 19:30:22 43° NE 19:32:01 35° E
Cosmos 1437 4.2 19:28:51 10° NNW 19:31:24 32° W 19:31:24 32° W
Cosmos 1726 Rocket 3.4 19:33:41 72° SSW 19:34:08 89° W 19:38:36 10° N
Cosmos 2341 Rocket 4.0 19:29:52 10° N 19:36:13 67° ENE 19:37:48 50° SE
STARLINK-1241 3.8 19:33:00 10° W 19:37:03 64° N 19:37:13 63° N
NOSS 3-4 (A) 3.8 19:33:27 10° NW 19:40:20 78° NE 19:42:42 47° ESE
NOSS 3-4 (C) 3.8 19:33:33 10° NW 19:40:26 77° NE 19:42:48 47° ESE
Cosmos 2369 Rocket 3.2 19:35:28 10° NW 19:40:47 41° WSW 19:43:14 27° SSW
STARLINK-1239 3.9 19:37:57 10° W 19:41:56 62° NNW 19:41:56 62° NNW
Cosmos 1726 3.6 19:42:57 24° WSW 19:44:33 35° WNW 19:48:02 10° N
Cosmos 1461 3.8 19:40:20 10° NNW 19:44:33 43° NE 19:44:33 43° NE
STARLINK-1240 4.0 19:42:41 10° W 19:46:29 60° NNW 19:46:29 60° NNW
Cosmos 1908 3.8 19:48:57 55° NW 19:48:57 55° NW 19:52:17 10° N
NOSS 3-3 (A) 3.9 19:45:00 10° SW 19:50:57 88° SE 19:57:46 10° NE
NOSS 3-3 (C) 3.8 19:45:06 10° SW 19:51:03 88° SE 19:57:52 10° NE
STARLINK-1216 4.1 19:47:26 10° W 19:51:02 56° NW 19:51:02 56° NW
Cosmos 1953 Rocket 4.5 19:48:18 10° NNW 19:52:32 44° W 19:53:22 39° WSW
Terra 2.2 19:53:53 52° NE 19:53:53 52° NE 19:58:02 10° N
ATLAS CENTAUR R/B 4.1 19:52:18 10° NNW 19:53:50 12° N 19:55:22 10° NNE
STARLINK-1237 4.3 19:52:14 10° W 19:55:38 52° NW 19:55:38 52° NW
Spot 2 Rocket 4.2 19:55:41 39° SW 19:57:04 48° W 20:02:02 10° NNW
STARLINK-1202 4.5 19:57:00 10° W 20:00:12 47° NW 20:00:12 47° NW
SPOT 1/Viking Rocket 3.7 20:00:50 61° SW 20:01:28 67° WSW 20:06:41 10° NNW
Cosmos 1943 Rocket 4.1 19:57:40 10° NW 20:01:50 22° WSW 20:04:34 16° SW
Cosmos 2218 Rocket 3.9 19:57:16 10° N 20:03:26 66° ENE 20:03:48 65° E
Cosmos 1943 3.3 20:01:03 15° SW 20:05:48 72° WNW 20:11:31 10° NNE
USA 234 3.4 20:06:04 10° ENE 20:12:34 70° NNW 20:19:04 10° WSW
ATLAS 2AS CENTAUR R/B 2.8 20:05:25 10° NW 20:13:04 74° SW 20:14:22 60° S
Cosmos 1340 Rocket 4.2 20:15:29 37° N 20:15:29 37° N 20:18:07 10° N
Cosmos 2181 Rocket 3.8 20:15:29 75° ESE 20:15:38 76° E 20:21:53 10° NNE
APEX 4.4 20:09:31 10° NNW 20:16:27 74° WSW 20:17:01 69° SSW
Resurs 01 Rocket 4.2 20:16:28 11° WSW 20:18:37 15° W 20:21:11 10° NW
Cosmos 921 Rocket 4.1 20:18:31 10° NNW 20:21:21 40° NW 20:21:21 40° NW
Cosmos 407 Rocket 4.0 20:26:39 54° NNE 20:26:39 54° NNE 20:30:36 10° NNE
Cosmos 1697 Rocket 4.2 20:23:17 10° NNW 20:28:00 26° NE 20:28:28 25° NE
Iridium 4 Rocket 4.2 20:25:53 10° N 20:28:55 41° NNW 20:28:55 41° NNW
SL-8 Rocket 4.1 20:30:15 10° NNW 20:36:29 65° W 20:37:01 63° WSW
Mayak 1.1 20:37:52 10° NNE 20:38:57 18° NNE 20:38:57 18° NNE
Cosmos 864 Rocket 4.5 20:36:39 10° NNW 20:42:54 75° W 20:42:54 75° W
SPOT 5 4.1 20:44:26 33° WNW 20:44:26 33° WNW 20:47:27 10° NNW
Cosmos 2366 rocket 4.0 20:38:12 10° NNW 20:44:18 70° W 20:44:18 70° W
ERS-1 Rocket 4.2 20:48:38 34° W 20:48:38 34° W 20:52:56 10° NNW
CZ-4C R/B 4.0 20:44:14 10° NW 20:50:12 35° NNE 20:53:35 24° ENE
Cosmos 1980 Rocket 3.8 20:48:51 10° NNW 20:53:18 23° NE 20:53:43 23° NE
COSMOS 2455 3.7 21:10:40 10° NW 21:15:09 43° W 21:15:09 43° W
Cosmos 1821 Rocket 4.3 21:22:09 10° NNW 21:27:28 63° NNW 21:27:28 63° NNW
Terra 4.0 21:32:45 20° WNW 21:32:45 20° WNW 21:35:08 10° NW
ATLAS CENTAUR R/B 4.2 21:30:46 10° NNW 21:31:51 16° NNW 21:31:51 16° NNW
ATLAS 5 CENTAUR R/B 4.3 21:38:36 14° NE 21:38:36 14° NE 21:39:23 10° NE
Cosmos 1934 Rocket 4.5 21:41:51 10° N 21:46:48 57° NNW 21:46:48 57° NNW
USA 234 3.9 21:48:55 10° ENE 21:55:11 50° N 22:01:27 10° WNW
Cosmos 2344 4.3 21:57:08 10° NW 22:06:18 76° NE 22:09:43 52° ESE
SL-16 R/B 4.5 22:07:40 18° ENE 22:09:19 20° NE 22:13:33 10° N
Cosmos 1697 Rocket 4.0 22:06:54 10° NNW 22:10:12 36° NW 22:10:12 36° NW
SL-16 R/B 3.8 22:10:34 10° NNW 22:15:22 29° NE 22:15:22 29° NE
Mayak 1.6 22:14:20 10° NNW 22:15:32 15° NNW 22:15:32 15° NNW
Cosmos 2322 Rocket 3.7 22:24:50 10° NNW 22:29:38 30° NE 22:29:38 30° NE
Cosmos 2360 Rocket 4.3 22:25:52 10° N 22:30:03 21° NE 22:31:55 18° ENE
Cosmos 1980 Rocket 3.6 22:32:25 10° NNW 22:35:28 34° NNW 22:35:28 34° NNW
CZ-4C R/B 3.0 22:32:44 10° NW 22:38:44 68° NNW 22:38:44 68° NNW
COSMOS 2406 4.4 22:56:09 39° NNW 22:56:09 39° NNW 23:00:15 10° NNE
Cosmos 2082 Rocket 3.4 23:00:51 38° NNE 23:00:51 38° NNE 23:04:15 10° NNE
Cosmos 2016 Rocket 4.5 23:13:06 10° N 23:18:10 58° N 23:18:10 58° N
ATLAS 5 CENTAUR R/B 3.8 23:20:05 24° NNW 23:20:05 24° NNW 23:24:13 10° NE
Cosmos 1833 Rocket 3.8 23:28:31 39° NNW 23:28:31 39° NNW 23:32:43 10° NNE
CZ-2D R/B 3.6 23:29:02 10° NNE 23:32:53 32° ENE 23:32:53 32° ENE
Cosmos 2219 Rocket 4.4 23:29:43 10° NNW 23:34:03 22° NE 23:38:22 10° E
Resurs 1-4 Rocket 3.6 23:30:32 10° NNE 23:34:06 31° ENE 23:34:06 31° ENE
USA 234 3.6 23:31:18 10° E 23:37:43 62° NNE 23:44:09 10° WNW
ADEOS II 4.3 23:36:03 10° NE 23:39:11 16° E 23:39:24 16° E
Cosmos 1607 4.3 23:48:47 60° NE 23:48:47 60° NE 23:53:50 10° NE
SL-16 R/B 2.7 23:52:44 70° NNE 23:52:44 70° NNE 23:58:19 10° NNW
